When you browse on this site, cookies collect data to enhance your experience and personalize the content and advertising you see.
Visit our Privacy Policy to learn more. By continuing to use the site, you agree to this use of cookies and data.
  • In Spain
  • List of Countries
  • For 7 days
  • Water Temperature
  • Weather Map
  • Weather Widgets
  • user-avatar
    Login

    Hourly Weather Maturín

    Today, 31 May, Sunday

    Time Temperature Precipitation Wind Pressure Humidity
    00:00 +27°C° 0 mm 2 mps 756 mmHg 91%
    01:00 +27°C° 0 mm 1 mps 756 mmHg 92%
    02:00 +26°C° 0 mm 1 mps 756 mmHg 94%
    03:00 +26°C° 0.4 mm 1 mps 755 mmHg 94%
    04:00 +26°C° 0.4 mm 1 mps 755 mmHg 94%
    05:00 +24°C° 0.4 mm 0 mps 755 mmHg 94%
    06:00 +27°C° 1.2 mm 1 mps 756 mmHg 91%
    07:00 +28°C° 1.2 mm 1 mps 756 mmHg 87%
    08:00 +29°C° 1.2 mm 2 mps 757 mmHg 83%
    09:00 +30°C° 2.3 mm 2 mps 757 mmHg 78%
    10:00 +31°C° 2.3 mm 2 mps 757 mmHg 74%
    11:00 +32°C° 2.3 mm 2 mps 757 mmHg 69%
    12:00 +33°C° 2.4 mm 3 mps 756 mmHg 70%
    13:00 +33°C° 2.4 mm 3 mps 756 mmHg 71%
    14:00 +33°C° 2.4 mm 3 mps 755 mmHg 73%
    15:00 +31°C° 0.9 mm 3 mps 755 mmHg 76%
    16:00 +30°C° 0.9 mm 2 mps 755 mmHg 79%
    17:00 +30°C° 0.9 mm 2 mps 754 mmHg 82%
    18:00 +29°C° 0.2 mm 2 mps 755 mmHg 86%
    19:00 +28°C° 0.2 mm 2 mps 755 mmHg 89%
    20:00 +27°C° 0.2 mm 2 mps 756 mmHg 92%
    21:00 +27°C° 0.3 mm 2 mps 756 mmHg 93%
    22:00 +27°C° 0.3 mm 2 mps 757 mmHg 94%
    23:00 +26°C° 0.3 mm 2 mps 757 mmHg 95%

    Tomorrow, 1 June, Monday

    Time Temperature Precipitation Wind Pressure Humidity
    00:00 +26°C° 0.2 mm 2 mps 757 mmHg 95%
    01:00 +26°C° 0.2 mm 2 mps 757 mmHg 96%
    02:00 +26°C° 0.2 mm 1 mps 756 mmHg 97%
    03:00 +26°C° 0.2 mm 1 mps 756 mmHg 97%
    04:00 +25°C° 0.2 mm 1 mps 756 mmHg 97%
    05:00 +25°C° 0.2 mm 1 mps 756 mmHg 97%
    06:00 +26°C° 0.1 mm 1 mps 756 mmHg 93%
    07:00 +27°C° 0.1 mm 2 mps 757 mmHg 89%
    08:00 +28°C° 0.1 mm 2 mps 757 mmHg 85%
    09:00 +29°C° 0.1 mm 2 mps 757 mmHg 76%
    10:00 +31°C° 0.1 mm 2 mps 757 mmHg 67%
    11:00 +34°C° 0.1 mm 2 mps 757 mmHg 58%
    12:00 +35°C° 0 mm 2 mps 756 mmHg 53%
    13:00 +35°C° 0 mm 2 mps 756 mmHg 48%
    14:00 +36°C° 0 mm 2 mps 755 mmHg 43%
    15:00 +36°C° 0 mm 3 mps 755 mmHg 46%
    16:00 +35°C° 0 mm 3 mps 754 mmHg 49%
    17:00 +34°C° 0 mm 4 mps 754 mmHg 52%
    18:00 +31°C° 0 mm 3 mps 754 mmHg 59%
    19:00 +29°C° 0 mm 3 mps 755 mmHg 66%
    20:00 +27°C° 0 mm 3 mps 755 mmHg 73%
    21:00 +27°C° 0 mm 3 mps 756 mmHg 77%
    22:00 +26°C° 0 mm 3 mps 756 mmHg 81%
    23:00 +26°C° 0 mm 2 mps 757 mmHg 85%

    Day after tomorrow, 2 June, Tuesday

    Time Temperature Precipitation Wind Pressure Humidity
    00:00 +26°C° 0 mm 2 mps 757 mmHg 87%
    01:00 +26°C° 0 mm 2 mps 756 mmHg 89%
    02:00 +25°C° 0 mm 1 mps 756 mmHg 91%
    03:00 +25°C° 0 mm 1 mps 756 mmHg 92%
    04:00 +25°C° 0 mm 1 mps 756 mmHg 94%
    05:00 +24°C° 0 mm 1 mps 756 mmHg 95%
    06:00 +26°C° 0 mm 1 mps 756 mmHg 89%
    07:00 +27°C° 0 mm 1 mps 757 mmHg 82%
    08:00 +28°C° 0 mm 1 mps 757 mmHg 75%
    09:00 +30°C° 0 mm 2 mps 757 mmHg 67%
    10:00 +32°C° 0 mm 2 mps 757 mmHg 59%
    11:00 +34°C° 0 mm 3 mps 757 mmHg 50%
    12:00 +35°C° 0 mm 3 mps 756 mmHg 48%
    13:00 +36°C° 0 mm 3 mps 755 mmHg 45%
    14:00 +37°C° 0 mm 3 mps 755 mmHg 43%
    15:00 +36°C° 0 mm 3 mps 754 mmHg 47%
    16:00 +35°C° 0 mm 4 mps 754 mmHg 51%
    17:00 +34°C° 0 mm 4 mps 753 mmHg 55%
    18:00 +32°C° 0 mm 4 mps 754 mmHg 62%
    19:00 +30°C° 0 mm 3 mps 754 mmHg 69%
    20:00 +28°C° 0 mm 3 mps 755 mmHg 75%
    21:00 +27°C° 0 mm 3 mps 755 mmHg 77%
    22:00 +27°C° 0 mm 2 mps 756 mmHg 78%
    23:00 +26°C° 0 mm 2 mps 756 mmHg 80%

    3 June, Wednesday

    Time Temperature Precipitation Wind Pressure Humidity
    00:00 +25°C° 0 mm 2 mps 756 mmHg 84%
    01:00 +25°C° 0 mm 1 mps 755 mmHg 88%
    02:00 +24°C° 0 mm 1 mps 755 mmHg 92%
    03:00 +24°C° 0 mm 1 mps 755 mmHg 93%
    04:00 +24°C° 0 mm 1 mps 755 mmHg 93%
    05:00 +24°C° 0 mm 1 mps 755 mmHg 94%
    06:00 +25°C° 0 mm 1 mps 756 mmHg 89%
    07:00 +26°C° 0 mm 1 mps 756 mmHg 85%
    08:00 +27°C° 0 mm 2 mps 757 mmHg 80%
    09:00 +29°C° 0 mm 2 mps 757 mmHg 70%
    10:00 +31°C° 0 mm 2 mps 756 mmHg 60%
    11:00 +34°C° 0 mm 3 mps 756 mmHg 51%
    12:00 +35°C° 0 mm 3 mps 756 mmHg 50%
    13:00 +35°C° 0 mm 3 mps 755 mmHg 50%
    14:00 +35°C° 0 mm 4 mps 754 mmHg 50%
    15:00 +35°C° 0 mm 4 mps 754 mmHg 50%
    16:00 +35°C° 0 mm 4 mps 753 mmHg 49%
    17:00 +34°C° 0 mm 4 mps 753 mmHg 49%
    18:00 +33°C° 0 mm 4 mps 753 mmHg 58%
    19:00 +30°C° 0 mm 3 mps 754 mmHg 67%
    20:00 +28°C° 0 mm 3 mps 754 mmHg 76%
    21:00 +27°C° 0 mm 2 mps 755 mmHg 79%
    22:00 +26°C° 0 mm 2 mps 755 mmHg 82%
    23:00 +25°C° 0 mm 2 mps 756 mmHg 85%

    4 June, Thursday

    Time Temperature Precipitation Wind Pressure Humidity
    00:00 +25°C° 0 mm 2 mps 755 mmHg 88%
    01:00 +24°C° 0 mm 1 mps 755 mmHg 91%
    02:00 +24°C° 0 mm 1 mps 755 mmHg 94%
    03:00 +24°C° 0 mm 1 mps 755 mmHg 94%
    04:00 +24°C° 0 mm 1 mps 755 mmHg 95%
    05:00 +24°C° 0 mm 1 mps 755 mmHg 96%
    06:00 +25°C° 0 mm 1 mps 755 mmHg 89%
    07:00 +27°C° 0 mm 1 mps 756 mmHg 82%
    08:00 +28°C° 0 mm 2 mps 756 mmHg 76%
    09:00 +30°C° 0 mm 2 mps 756 mmHg 66%
    10:00 +32°C° 0 mm 2 mps 756 mmHg 56%
    11:00 +35°C° 0 mm 3 mps 756 mmHg 46%
    12:00 +36°C° 0 mm 3 mps 755 mmHg 43%
    13:00 +37°C° 0 mm 3 mps 755 mmHg 40%
    14:00 +38°C° 0 mm 2 mps 754 mmHg 36%
    15:00 +37°C° 0 mm 3 mps 754 mmHg 40%
    16:00 +36°C° 0 mm 4 mps 754 mmHg 43%
    17:00 +34°C° 0 mm 4 mps 754 mmHg 46%
    18:00 +33°C° 0 mm 4 mps 754 mmHg 55%
    19:00 +30°C° 0 mm 3 mps 755 mmHg 63%
    20:00 +29°C° 0 mm 3 mps 755 mmHg 72%
    21:00 +28°C° 0 mm 3 mps 756 mmHg 75%
    22:00 +27°C° 0 mm 2 mps 756 mmHg 79%
    23:00 +27°C° 0 mm 2 mps 756 mmHg 82%

    5 June, Friday

    Time Temperature Precipitation Wind Pressure Humidity
    00:00 +26°C° 0 mm 2 mps 756 mmHg 85%
    01:00 +26°C° 0 mm 1 mps 756 mmHg 87%
    02:00 +26°C° 0 mm 1 mps 755 mmHg 89%
    03:00 +26°C° 0 mm 1 mps 755 mmHg 91%
    04:00 +25°C° 0 mm 1 mps 755 mmHg 93%
    05:00 +25°C° 0 mm 1 mps 756 mmHg 94%
    06:00 +27°C° 0 mm 2 mps 756 mmHg 87%
    07:00 +28°C° 0 mm 2 mps 756 mmHg 80%
    08:00 +29°C° 0 mm 2 mps 757 mmHg 73%
    09:00 +31°C° 0 mm 3 mps 757 mmHg 65%
    10:00 +34°C° 0 mm 3 mps 757 mmHg 58%
    11:00 +36°C° 0 mm 3 mps 757 mmHg 50%
    12:00 +35°C° 1.8 mm 3 mps 756 mmHg 57%
    13:00 +34°C° 1.8 mm 3 mps 756 mmHg 64%
    14:00 +33°C° 1.8 mm 4 mps 755 mmHg 71%
    15:00 +30°C° 1.8 mm 3 mps 755 mmHg 78%
    16:00 +28°C° 1.8 mm 3 mps 755 mmHg 85%
    17:00 +26°C° 1.8 mm 3 mps 755 mmHg 91%
    18:00 +26°C° 0 mm 2 mps 755 mmHg 92%
    19:00 +26°C° 0 mm 2 mps 756 mmHg 92%
    20:00 +26°C° 0 mm 1 mps 756 mmHg 93%
    21:00 +26°C° 0 mm 1 mps 756 mmHg 94%
    22:00 +25°C° 0 mm 1 mps 756 mmHg 94%
    23:00 +25°C° 0 mm 1 mps 757 mmHg 95%
    Show more